Regional Weather Roundup
Issued by NWS Sioux Falls, SD

Home | Current Version | Previous Version | Graphics & Text | Print | Product List | Glossary Off
Versions: 1 2 3 4 5 6 7 8 9 10 11 12 13 14 15 16 17 18 19 20 21 22 23 24 25 26 27 28 29 30 31 32 33 34 35 36 37 38 39 40 41 42 43 44 45 46 47 48 49 50

000
ASUS43 KFSD 050402
RWRFSD

WEATHER ROUNDUP FOR SE SOUTH DAKOTA/SW MINNESOTA/NW IOWA
NATIONAL WEATHER SERVICE SIOUX FALLS SD
1100 PM CDT MON MAY 04 2015

NOTE: "FAIR" INDICATES FEW OR NO CLOUDS BELOW 12,000 FEET WITH NO
SIGNIFICANT WEATHER AND OR OBSTRUCTIONS TO VISIBILITY.


SDZ038>040-050-052>070-050500-
SOUTHEAST SOUTH DAKOTA

CITY           SKY/WX    TMP DP  RH WIND       PRES   REMARKS
BROOKINGS      MOCLDY    59  27  29 E9        30.16S
CHAMBERLAIN    NOT AVBL
HURON          PTCLDY    57  30  35 E9        30.12S
MADISON        FAIR      54  25  32 NE9       30.14F
MITCHELL       PTCLDY    58  33  39 S7        30.12R
SIOUX FALLS    MOCLDY    54  30  40 E8        30.13S
WINNER         CLOUDY    59  32  36 SE8       30.11S
YANKTON        PTCLDY    55  45  67 CALM      30.13R
$$

MNZ071-072-080-081-089-090-097-098-050500-
SOUTHWEST MINNESOTA

CITY           SKY/WX    TMP DP  RH WIND       PRES   REMARKS
FAIRMONT       PTCLDY    57  28  33 NE9       30.14F
JACKSON        PTCLDY    55  30  38 E9        30.15F
LUVERNE        MOCLDY    55  28  35 E7        30.14S
MARSHALL       MOCLDY    59  28  31 E8        30.16S
MONTEVIDEO     PTCLDY    54  28  37 SE8       30.18S
REDWOOD FALLS  MOCLDY    62  26  25 E7        30.16F
TRACY          PTCLDY    58  32  37 E5        30.16S
WORTHINGTON    PTCLDY    50  27  40 E6        30.15F
$$

IAZ001>003-012>014-020>022-031-032-NEZ013-014-SDZ071-050500-
NORTHWEST IOWA

CITY           SKY/WX    TMP DP  RH WIND       PRES   REMARKS
DENISON        CLOUDY    55  55 100 E8        30.09R
ESTHERVILLE    MOCLDY    50  36  58 NE8       30.13F
SIOUX CITY     CLOUDY    58  49  72 SE5       30.13R
SPENCER        MOCLDY    54  41  61 E8        30.13S
$$

ABBREVIATIONS USED IN REMARKS
   TC - TEMPERATURE IN CELSIUS
  WCI - WIND CHILL INDEX
   HX - HEAT INDEX
  VSB - VISIBILITY



USA.gov is the U.S. government's official web portal to all federal, state and local government web resources and services.